UAE8LT OMDB-DTTA

Flight info

Callsign UAE8LT
Flight time 6h 29m
Altitude 38000
Route ANVIX R401 GIDIS G783 RIGIL M628 PEKEM/N0515F280 Q332 MEDPO Y511 ITRUX/N0495F380 Y511 KITUB/N0488F400 Y511 PMA Z712 WEJ L677 CVO L617 NABSI M872 METRU UP868 ARLOS DCT DIRKA DCT TOVMA DCT DINUX DCT SONAK R781 DIDON DCT BAVRA DCT MADUS
Aircraft A359/H-SDE2E3GHIJ3J4J5LM1ORWXY/LB1D1

Departure

Time 2026-04-25 13:15
Airport Dubai International Airport (OMDB)

Arrival

Time 2026-04-25 19:45
Airport Tunis Carthage International Airport (DTTA)
Time Latitude Longitude Altitude Speed Heading
2026-04-25 12:48 25.25571 55.35072 27 ft 0 kts 204°
2026-04-25 13:00 25.25563 55.35068 27 ft 1 kts 204°
2026-04-25 13:00 25.25572 55.35072 27 ft 2 kts 204°
2026-04-25 13:01 25.25580 55.35077 27 ft 2 kts 204°
2026-04-25 13:01 25.25574 55.35073 27 ft 2 kts 204°
2026-04-25 13:01 25.25583 55.35078 27 ft 2 kts 204°
2026-04-25 13:01 25.25575 55.35074 27 ft 4 kts 204°
2026-04-25 13:02 25.25569 55.35070 27 ft 1 kts 204°
2026-04-25 13:02 25.25578 55.35075 27 ft 2 kts 204°
2026-04-25 13:02 25.25585 55.35079 27 ft 0 kts 204°
2026-04-25 13:02 25.25598 55.35085 26 ft 3 kts 204°
2026-04-25 13:03 25.25614 55.35093 25 ft 3 kts 193°
2026-04-25 13:03 25.25629 55.35095 26 ft 3 kts 163°
2026-04-25 13:03 25.25644 55.35091 25 ft 3 kts 158°
2026-04-25 13:03 25.25659 55.35083 25 ft 3 kts 152°
2026-04-25 13:04 25.25669 55.35077 25 ft 3 kts 152°
2026-04-25 13:04 25.25686 55.35063 25 ft 2 kts 123°
2026-04-25 13:04 25.25691 55.35054 26 ft 1 kts 123°
2026-04-25 13:04 25.25696 55.35046 25 ft 1 kts 123°
2026-04-25 13:05 25.25698 55.35042 25 ft 0 kts 123°
2026-04-25 13:06 25.25696 55.35047 25 ft 6 kts 121°
2026-04-25 13:07 25.25672 55.35096 25 ft 0 kts 114°
2026-04-25 13:07 25.25671 55.35102 25 ft 3 kts 111°
2026-04-25 13:07 25.25686 55.35155 27 ft 12 kts 45°
2026-04-25 13:08 25.25735 55.35190 27 ft 13 kts 32°
2026-04-25 13:08 25.25846 55.35266 27 ft 16 kts 31°
2026-04-25 13:08 25.25911 55.35310 28 ft 17 kts 32°
2026-04-25 13:08 25.25972 55.35357 28 ft 0 kts 44°
2026-04-25 13:09 25.25975 55.35362 28 ft 5 kts 49°
2026-04-25 13:09 25.26002 55.35439 28 ft 13 kts 82°
2026-04-25 13:09 25.25986 55.35554 27 ft 17 kts 112°
2026-04-25 13:09 25.25904 55.35707 28 ft 18 kts 122°
2026-04-25 13:10 25.25857 55.35790 28 ft 19 kts 122°
2026-04-25 13:10 25.25786 55.35919 28 ft 20 kts 122°
2026-04-25 13:10 25.25708 55.36052 28 ft 21 kts 122°
2026-04-25 13:10 25.25629 55.36193 29 ft 22 kts 121°
2026-04-25 13:11 25.25547 55.36342 28 ft 23 kts 122°
2026-04-25 13:11 25.25460 55.36496 28 ft 24 kts 122°
2026-04-25 13:11 25.25368 55.36660 28 ft 26 kts 122°
2026-04-25 13:11 25.25278 55.36820 28 ft 24 kts 122°
2026-04-25 13:12 25.25186 55.36981 28 ft 26 kts 122°
2026-04-25 13:12 25.25091 55.37152 29 ft 26 kts 122°
2026-04-25 13:12 25.24994 55.37326 30 ft 27 kts 121°
2026-04-25 13:12 25.24927 55.37443 30 ft 28 kts 123°
2026-04-25 13:13 25.24787 55.37691 29 ft 29 kts 121°
2026-04-25 13:13 25.24702 55.37844 28 ft 13 kts 122°
2026-04-25 13:13 25.24673 55.37935 29 ft 13 kts 83°
2026-04-25 13:13 25.24692 55.37966 29 ft 0 kts 43°
2026-04-25 13:14 25.24704 55.37978 29 ft 9 kts 40°
2026-04-25 13:14 25.24788 55.38014 31 ft 14 kts 353°
2026-04-25 13:14 25.24861 55.37924 32 ft 27 kts 302°
2026-04-25 13:14 25.25076 55.37539 33 ft 90 kts 301°
2026-04-25 13:15 25.25505 55.36766 30 ft 145 kts 301°
2026-04-25 13:15 25.26085 55.35711 375 ft 160 kts 302°
2026-04-25 13:15 25.26640 55.34691 1022 ft 156 kts 302°
2026-04-25 13:15 25.27221 55.33648 1419 ft 164 kts 303°
2026-04-25 13:16 25.27847 55.32536 1628 ft 177 kts 303°
2026-04-25 13:16 25.28524 55.31329 1869 ft 191 kts 302°
2026-04-25 13:16 25.29126 55.29974 2089 ft 208 kts 288°
2026-04-25 13:16 25.29104 55.28337 2333 ft 224 kts 254°
2026-04-25 13:17 25.28472 55.26726 2714 ft 231 kts 246°
2026-04-25 13:17 25.27754 55.25111 3195 ft 235 kts 246°
2026-04-25 13:17 25.27037 55.23474 3688 ft 237 kts 246°
2026-04-25 13:17 25.26321 55.21820 4225 ft 236 kts 246°
2026-04-25 13:18 25.25615 55.20173 4765 ft 235 kts 246°
2026-04-25 13:18 25.24883 55.18552 5268 ft 237 kts 240°
2026-04-25 13:18 25.23748 55.17228 5714 ft 242 kts 212°
2026-04-25 13:18 25.22123 55.16686 6087 ft 252 kts 183°
2026-04-25 13:19 25.20345 55.16819 6523 ft 258 kts 171°
2026-04-25 13:19 25.18673 55.17575 6936 ft 265 kts 145°
2026-04-25 13:19 25.17431 55.19123 7211 ft 278 kts 121°
2026-04-25 13:19 25.16799 55.20411 7385 ft 287 kts 118°
2026-04-25 13:20 25.15590 55.23047 7952 ft 292 kts 118°
2026-04-25 13:20 25.14656 55.25041 8471 ft 293 kts 119°
2026-04-25 13:20 25.13708 55.27043 8964 ft 295 kts 120°
2026-04-25 13:20 25.12750 55.29054 9451 ft 297 kts 120°
2026-04-25 13:21 25.11778 55.31079 9963 ft 299 kts 120°
2026-04-25 13:21 25.10801 55.33112 10404 ft 300 kts 120°
2026-04-25 13:21 25.09869 55.35179 10891 ft 301 kts 116°
2026-04-25 13:21 25.09019 55.37298 11339 ft 304 kts 116°
2026-04-25 13:22 25.08164 55.39432 11801 ft 306 kts 116°
2026-04-25 13:22 25.07290 55.41584 12296 ft 307 kts 117°
2026-04-25 13:22 25.06429 55.43756 12664 ft 314 kts 115°
2026-04-25 13:23 25.04685 55.48346 13121 ft 334 kts 115°
2026-04-25 13:23 25.03769 55.50738 13361 ft 344 kts 115°
2026-04-25 13:23 25.02824 55.53198 13595 ft 353 kts 115°
2026-04-25 13:23 25.01775 55.55716 13796 ft 360 kts 121°
2026-04-25 13:24 25.00521 55.58131 13985 ft 367 kts 123°
2026-04-25 13:24 24.99194 55.60576 14154 ft 375 kts 123°
2026-04-25 13:24 24.97845 55.63060 14326 ft 383 kts 123°
2026-04-25 13:24 24.96480 55.65580 14469 ft 390 kts 123°
2026-04-25 13:25 24.95062 55.68200 14672 ft 395 kts 123°
2026-04-25 13:25 24.93569 55.70753 14944 ft 398 kts 128°
2026-04-25 13:25 24.91939 55.73221 15196 ft 400 kts 130°
2026-04-25 13:25 24.90038 55.75447 15487 ft 399 kts 142°
2026-04-25 13:26 24.87715 55.77111 15768 ft 397 kts 158°
2026-04-25 13:26 24.85077 55.77930 16100 ft 393 kts 176°
2026-04-25 13:26 24.82353 55.77864 16371 ft 393 kts 189°
2026-04-25 13:26 24.79660 55.77306 16661 ft 394 kts 195°
2026-04-25 13:27 24.77011 55.76511 17013 ft 394 kts 198°
2026-04-25 13:27 24.74379 55.75624 17314 ft 396 kts 199°
2026-04-25 13:27 24.71742 55.74720 17619 ft 398 kts 199°
2026-04-25 13:27 24.69080 55.73829 17908 ft 401 kts 198°
2026-04-25 13:28 24.66400 55.72965 18217 ft 403 kts 198°
2026-04-25 13:28 24.65523 55.72688 18294 ft 403 kts 198°
2026-04-25 13:28 24.60978 55.71286 18730 ft 406 kts 197°
2026-04-25 13:28 24.58242 55.70457 18970 ft 409 kts 197°
2026-04-25 13:29 24.55532 55.69640 19219 ft 410 kts 197°
2026-04-25 13:29 24.52776 55.68811 19493 ft 411 kts 197°
2026-04-25 13:29 24.49971 55.67965 19729 ft 414 kts 197°
2026-04-25 13:30 24.44421 55.66290 20183 ft 417 kts 197°
2026-04-25 13:30 24.41620 55.65444 20430 ft 419 kts 197°
2026-04-25 13:30 24.38805 55.64593 20679 ft 421 kts 197°
2026-04-25 13:31 24.33125 55.62878 21133 ft 425 kts 197°
2026-04-25 13:31 24.30258 55.62013 21361 ft 427 kts 197°
2026-04-25 13:31 24.27388 55.61148 21573 ft 429 kts 197°
2026-04-25 13:31 24.24507 55.60280 21834 ft 429 kts 198°
2026-04-25 13:32 24.21613 55.59408 22047 ft 431 kts 198°
2026-04-25 13:32 24.18723 55.58538 22325 ft 432 kts 197°
2026-04-25 13:32 24.15802 55.57658 22466 ft 435 kts 198°
2026-04-25 13:32 24.12877 55.56777 22670 ft 438 kts 197°
2026-04-25 13:33 24.09931 55.55891 22841 ft 440 kts 197°
2026-04-25 13:33 24.06983 55.55006 23123 ft 440 kts 197°
2026-04-25 13:33 24.04054 55.54129 23361 ft 441 kts 198°
2026-04-25 13:33 24.03060 55.53830 23425 ft 442 kts 198°
2026-04-25 13:34 23.98101 55.52339 23682 ft 445 kts 197°
2026-04-25 13:34 23.95103 55.51438 23811 ft 448 kts 197°
2026-04-25 13:34 23.92097 55.50538 24016 ft 448 kts 197°
2026-04-25 13:34 23.89074 55.49634 24207 ft 449 kts 197°
2026-04-25 13:35 23.86063 55.48734 24424 ft 450 kts 197°
2026-04-25 13:35 23.83039 55.47833 24572 ft 452 kts 197°
2026-04-25 13:35 23.79999 55.46931 24723 ft 453 kts 197°
2026-04-25 13:35 23.76954 55.46027 24909 ft 454 kts 197°
2026-04-25 13:36 23.73902 55.45121 25091 ft 455 kts 197°
2026-04-25 13:36 23.70841 55.44213 25266 ft 456 kts 197°
2026-04-25 13:36 23.67778 55.43305 25432 ft 457 kts 197°
2026-04-25 13:36 23.64713 55.42396 25615 ft 458 kts 197°
2026-04-25 13:37 23.61624 55.41480 25768 ft 460 kts 197°
2026-04-25 13:37 23.58536 55.40566 25961 ft 460 kts 197°
2026-04-25 13:37 23.55443 55.39651 26138 ft 461 kts 197°
2026-04-25 13:37 23.52335 55.38732 26308 ft 462 kts 197°
2026-04-25 13:38 23.49223 55.37815 26476 ft 464 kts 197°
2026-04-25 13:38 23.46105 55.36895 26642 ft 465 kts 197°
2026-04-25 13:38 23.42969 55.35967 26813 ft 466 kts 197°
2026-04-25 13:38 23.39846 55.35043 27010 ft 467 kts 197°
2026-04-25 13:39 23.36703 55.34113 27184 ft 468 kts 197°
2026-04-25 13:39 23.33562 55.33184 27357 ft 469 kts 197°
2026-04-25 13:39 23.30402 55.32252 27530 ft 470 kts 197°
2026-04-25 13:39 23.27242 55.31319 27715 ft 472 kts 197°
2026-04-25 13:40 23.24068 55.30384 27885 ft 473 kts 197°
2026-04-25 13:40 23.20881 55.29445 28056 ft 474 kts 197°
2026-04-25 13:40 23.17697 55.28507 28241 ft 476 kts 197°
2026-04-25 13:40 23.14503 55.27536 28417 ft 476 kts 200°
2026-04-25 13:41 23.11417 55.26235 28562 ft 475 kts 208°
2026-04-25 13:41 23.08575 55.24506 28721 ft 473 kts 216°
2026-04-25 13:41 23.05993 55.22304 28880 ft 472 kts 225°
2026-04-25 13:41 23.03779 55.19682 29063 ft 470 kts 234°
2026-04-25 13:42 23.01997 55.16717 29226 ft 469 kts 243°
2026-04-25 13:42 23.00686 55.13483 29386 ft 469 kts 252°
2026-04-25 13:42 22.99872 55.10066 29547 ft 469 kts 261°
2026-04-25 13:42 22.99525 55.07755 29657 ft 469 kts 260°
2026-04-25 13:43 22.98665 55.03091 29897 ft 471 kts 259°
2026-04-25 13:43 22.97382 54.96104 30144 ft 474 kts 259°
2026-04-25 13:44 22.96265 54.90262 30369 ft 476 kts 258°
2026-04-25 13:44 22.95575 54.86745 30528 ft 477 kts 258°
2026-04-25 13:44 22.94877 54.83219 30675 ft 478 kts 258°
2026-04-25 13:44 22.94174 54.79694 30821 ft 479 kts 258°
2026-04-25 13:45 22.93477 54.76200 30968 ft 480 kts 258°
2026-04-25 13:45 22.92771 54.72667 31160 ft 480 kts 258°
2026-04-25 13:45 22.92063 54.69125 31319 ft 480 kts 258°
2026-04-25 13:45 22.91356 54.65586 31530 ft 480 kts 258°
2026-04-25 13:46 22.90649 54.62053 31729 ft 480 kts 258°
2026-04-25 13:46 22.89941 54.58518 31936 ft 479 kts 258°
2026-04-25 13:46 22.89234 54.54990 32145 ft 479 kts 258°
2026-04-25 13:46 22.88526 54.51460 32343 ft 478 kts 258°
2026-04-25 13:47 22.87818 54.47939 32592 ft 477 kts 258°
2026-04-25 13:47 22.87113 54.44436 32920 ft 474 kts 258°
2026-04-25 13:47 22.86409 54.40939 33155 ft 474 kts 258°
2026-04-25 13:47 22.85705 54.37450 33378 ft 474 kts 258°
2026-04-25 13:48 22.85002 54.33962 33620 ft 473 kts 258°
2026-04-25 13:48 22.84299 54.30483 33865 ft 473 kts 258°
2026-04-25 13:48 22.83595 54.27006 34089 ft 471 kts 259°
2026-04-25 13:48 22.82901 54.23582 34391 ft 468 kts 259°
2026-04-25 13:49 22.82207 54.20164 34956 ft 459 kts 260°
2026-04-25 13:49 22.81523 54.16805 35348 ft 454 kts 260°
2026-04-25 13:49 22.80844 54.13465 35566 ft 454 kts 261°
2026-04-25 13:49 22.80166 54.10124 35756 ft 454 kts 261°
2026-04-25 13:50 22.79485 54.06775 35971 ft 454 kts 261°
2026-04-25 13:50 22.78807 54.03450 36218 ft 453 kts 261°
2026-04-25 13:50 22.78126 54.00115 36422 ft 452 kts 261°
2026-04-25 13:50 22.77456 53.96795 36681 ft 450 kts 262°
2026-04-25 13:51 22.76806 53.93491 36950 ft 448 kts 262°
2026-04-25 13:51 22.76166 53.90188 37182 ft 447 kts 263°
2026-04-25 13:51 22.75529 53.86886 37406 ft 446 kts 263°
2026-04-25 13:51 22.74893 53.83604 37629 ft 445 kts 263°
2026-04-25 13:52 22.74256 53.80331 37823 ft 445 kts 263°
2026-04-25 13:52 22.72972 53.73753 37856 ft 446 kts 263°
2026-04-25 13:53 22.71683 53.67190 37861 ft 445 kts 263°
2026-04-25 13:53 22.70392 53.60634 37860 ft 445 kts 263°
2026-04-25 13:54 22.69105 53.54121 37849 ft 445 kts 263°
2026-04-25 13:54 22.67809 53.47585 37848 ft 444 kts 263°
2026-04-25 13:55 22.66513 53.41033 37864 ft 444 kts 263°
2026-04-25 13:55 22.65221 53.34513 37861 ft 443 kts 263°
2026-04-25 13:56 22.63924 53.27990 37858 ft 443 kts 263°
2026-04-25 13:56 22.62624 53.21470 37860 ft 443 kts 263°
2026-04-25 13:57 22.61320 53.14944 37859 ft 443 kts 263°
2026-04-25 13:57 22.60011 53.08411 37865 ft 443 kts 263°
2026-04-25 13:58 22.58700 53.01886 37861 ft 443 kts 263°
2026-04-25 13:58 22.57397 52.95410 37856 ft 443 kts 263°
2026-04-25 13:59 22.56084 52.88900 37863 ft 443 kts 263°
2026-04-25 13:59 22.54770 52.82396 37858 ft 443 kts 263°
2026-04-25 14:00 22.53449 52.75872 37860 ft 443 kts 263°
2026-04-25 14:00 22.52129 52.69373 37867 ft 441 kts 263°
2026-04-25 14:01 22.50810 52.62891 37863 ft 441 kts 262°
2026-04-25 14:01 22.49498 52.56448 37865 ft 441 kts 262°
2026-04-25 14:02 22.48218 52.50183 37864 ft 441 kts 262°
2026-04-25 14:02 22.46888 52.43687 37867 ft 440 kts 262°
2026-04-25 14:03 22.45567 52.37250 37868 ft 440 kts 262°
2026-04-25 14:03 22.44239 52.30788 37868 ft 440 kts 262°
2026-04-25 14:04 22.42910 52.24335 37867 ft 439 kts 262°
2026-04-25 14:04 22.41594 52.17963 37867 ft 439 kts 262°
2026-04-25 14:05 22.40810 52.11490 37868 ft 431 kts 274°
2026-04-25 14:05 22.41049 52.04989 37876 ft 430 kts 276°
2026-04-25 14:06 22.41450 51.98544 37875 ft 430 kts 277°
2026-04-25 14:06 22.41872 51.92100 37875 ft 430 kts 277°
2026-04-25 14:07 22.42270 51.85653 37875 ft 430 kts 276°
2026-04-25 14:07 22.42656 51.79208 37877 ft 430 kts 276°
2026-04-25 14:08 22.43039 51.72752 37881 ft 430 kts 276°
2026-04-25 14:08 22.43417 51.66345 37881 ft 430 kts 276°
2026-04-25 14:09 22.43796 51.59895 37883 ft 429 kts 276°
2026-04-25 14:09 22.44172 51.53455 37881 ft 429 kts 276°
2026-04-25 14:10 22.44546 51.47008 37886 ft 429 kts 276°
2026-04-25 14:10 22.44917 51.40565 37889 ft 429 kts 276°
2026-04-25 14:11 22.45285 51.34132 37886 ft 429 kts 276°
2026-04-25 14:11 22.45651 51.27695 37886 ft 428 kts 276°
2026-04-25 14:12 22.46011 51.21308 37885 ft 428 kts 276°
2026-04-25 14:12 22.46371 51.14879 37890 ft 428 kts 276°
2026-04-25 14:13 22.46728 51.08457 37888 ft 428 kts 276°
2026-04-25 14:13 22.47080 51.02029 37889 ft 428 kts 276°
2026-04-25 14:14 22.47435 50.95605 37889 ft 428 kts 276°
2026-04-25 14:14 22.47786 50.89169 37889 ft 428 kts 276°
2026-04-25 14:15 22.48134 50.82743 37891 ft 427 kts 276°
2026-04-25 14:15 22.48477 50.76334 37892 ft 426 kts 276°
2026-04-25 14:16 22.48818 50.69934 37897 ft 426 kts 276°
2026-04-25 14:16 22.49157 50.63532 37894 ft 426 kts 276°
2026-04-25 14:17 22.49493 50.57126 37889 ft 427 kts 276°
2026-04-25 14:17 22.49827 50.50716 37893 ft 427 kts 276°
2026-04-25 14:18 22.50155 50.44351 37890 ft 427 kts 276°
2026-04-25 14:18 22.50484 50.37933 37893 ft 427 kts 276°
2026-04-25 14:19 22.50810 50.31527 37885 ft 427 kts 276°
2026-04-25 14:19 22.51133 50.25118 37898 ft 427 kts 276°
2026-04-25 14:20 22.51455 50.18709 37894 ft 427 kts 275°
2026-04-25 14:20 22.51772 50.12311 37892 ft 426 kts 275°
2026-04-25 14:21 22.52088 50.05892 37892 ft 426 kts 275°
2026-04-25 14:21 22.52402 49.99479 37895 ft 427 kts 275°
2026-04-25 14:22 22.52713 49.93071 37894 ft 427 kts 275°
2026-04-25 14:22 22.53021 49.86668 37892 ft 427 kts 275°
2026-04-25 14:23 22.53327 49.80257 37892 ft 427 kts 275°
2026-04-25 14:23 22.53676 49.73846 37886 ft 426 kts 277°
2026-04-25 14:24 22.54297 49.67521 37894 ft 426 kts 278°
2026-04-25 14:24 22.54973 49.61159 37895 ft 426 kts 278°
2026-04-25 14:25 22.55606 49.54790 37894 ft 426 kts 278°
2026-04-25 14:25 22.56211 49.48417 37892 ft 425 kts 278°
2026-04-25 14:26 22.56706 49.43123 37895 ft 425 kts 277°
2026-04-25 14:26 22.57299 49.36768 37895 ft 424 kts 277°
2026-04-25 14:27 22.57892 49.30416 37895 ft 424 kts 277°
2026-04-25 14:27 22.58483 49.24056 37895 ft 424 kts 277°
2026-04-25 14:28 22.59070 49.17702 37894 ft 424 kts 277°
2026-04-25 14:28 22.59656 49.11341 37895 ft 424 kts 277°
2026-04-25 14:29 22.60238 49.04988 37894 ft 424 kts 277°
2026-04-25 14:29 22.60819 48.98626 37897 ft 424 kts 277°
2026-04-25 14:30 22.61397 48.92269 37903 ft 424 kts 277°
2026-04-25 14:30 22.62259 48.82733 37900 ft 424 kts 277°
2026-04-25 14:31 22.62830 48.76381 37903 ft 423 kts 277°
2026-04-25 14:31 22.63398 48.70036 37906 ft 423 kts 277°
2026-04-25 14:32 22.63963 48.63693 37900 ft 423 kts 277°
2026-04-25 14:32 22.64523 48.57382 37897 ft 424 kts 277°
2026-04-25 14:33 22.65086 48.50995 37904 ft 424 kts 277°
2026-04-25 14:33 22.65645 48.44642 37904 ft 424 kts 277°
2026-04-25 14:34 22.66197 48.38329 37903 ft 424 kts 277°
2026-04-25 14:34 22.66751 48.31967 37903 ft 424 kts 277°
2026-04-25 14:35 22.67302 48.25604 37901 ft 424 kts 277°
2026-04-25 14:35 22.67851 48.19247 37902 ft 424 kts 276°
2026-04-25 14:36 22.68398 48.12884 37906 ft 424 kts 276°
2026-04-25 14:36 22.68940 48.06531 37905 ft 424 kts 276°
2026-04-25 14:37 22.69482 48.00169 37899 ft 424 kts 276°
2026-04-25 14:37 22.70013 47.93852 37905 ft 424 kts 276°
2026-04-25 14:38 22.70545 47.87488 37909 ft 424 kts 276°
2026-04-25 14:38 22.71075 47.81121 37908 ft 424 kts 276°
2026-04-25 14:39 22.71603 47.74755 37909 ft 424 kts 276°
2026-04-25 14:39 22.72129 47.68386 37911 ft 425 kts 276°
2026-04-25 14:40 22.72653 47.62015 37909 ft 424 kts 276°
2026-04-25 14:40 22.73173 47.55656 37918 ft 424 kts 276°
2026-04-25 14:41 22.73691 47.49285 37925 ft 424 kts 276°
2026-04-25 14:41 22.74206 47.42923 37922 ft 424 kts 276°
2026-04-25 14:42 22.74634 47.37614 37925 ft 424 kts 276°
2026-04-25 14:42 22.75228 47.30202 37928 ft 424 kts 276°
2026-04-25 14:43 22.75736 47.23829 37933 ft 424 kts 276°
2026-04-25 14:43 22.76242 47.17452 37936 ft 424 kts 276°
2026-04-25 14:44 22.76754 47.11078 37933 ft 424 kts 276°
2026-04-25 14:44 22.77258 47.04707 37941 ft 424 kts 275°
2026-04-25 14:45 22.77756 46.98372 37943 ft 424 kts 275°
2026-04-25 14:45 22.78256 46.92006 37946 ft 424 kts 275°
2026-04-25 14:46 22.78753 46.85632 37947 ft 424 kts 275°
2026-04-25 14:46 22.79248 46.79261 37944 ft 424 kts 275°
2026-04-25 14:47 22.79658 46.73970 37945 ft 424 kts 275°
2026-04-25 14:47 22.80231 46.66516 37951 ft 424 kts 275°
2026-04-25 14:48 22.80719 46.60144 37953 ft 424 kts 275°
2026-04-25 14:48 22.81201 46.53809 37954 ft 424 kts 275°
2026-04-25 14:49 22.81687 46.47386 37955 ft 424 kts 275°
2026-04-25 14:49 22.82163 46.41068 38045 ft 423 kts 275°
2026-04-25 14:50 22.82403 46.37886 38292 ft 422 kts 275°
2026-04-25 14:50 22.82642 46.34716 38545 ft 421 kts 275°
2026-04-25 14:50 22.82876 46.31556 38726 ft 420 kts 275°
2026-04-25 14:50 22.83108 46.28404 38888 ft 420 kts 275°
2026-04-25 14:51 22.83340 46.25242 39007 ft 420 kts 275°
2026-04-25 14:51 22.83572 46.22079 39128 ft 420 kts 275°
2026-04-25 14:51 22.83804 46.18915 39259 ft 420 kts 275°
2026-04-25 14:51 22.84034 46.15760 39373 ft 420 kts 275°
2026-04-25 14:52 22.84264 46.12605 39477 ft 420 kts 275°
2026-04-25 14:52 22.84494 46.09441 39603 ft 421 kts 275°
2026-04-25 14:52 22.84723 46.06281 39718 ft 421 kts 275°
2026-04-25 14:52 22.84875 46.04184 39796 ft 421 kts 275°
2026-04-25 14:53 22.85178 45.99994 39914 ft 421 kts 275°
2026-04-25 14:53 22.85406 45.96822 39930 ft 422 kts 275°
2026-04-25 14:53 22.85861 45.90477 39921 ft 421 kts 275°
2026-04-25 14:54 22.86312 45.84157 39909 ft 419 kts 275°
2026-04-25 14:54 22.86758 45.77858 39909 ft 419 kts 275°
2026-04-25 14:55 22.87202 45.71556 39911 ft 419 kts 275°
2026-04-25 14:55 22.87641 45.65291 39914 ft 419 kts 275°
2026-04-25 14:56 22.88081 45.58984 39911 ft 419 kts 275°
2026-04-25 14:56 22.88518 45.52678 39918 ft 419 kts 275°
2026-04-25 14:57 22.88953 45.46369 39909 ft 419 kts 275°
2026-04-25 14:57 22.89382 45.40097 39906 ft 419 kts 275°
2026-04-25 14:58 22.89811 45.33794 39917 ft 418 kts 275°
2026-04-25 14:58 22.90237 45.27507 39912 ft 417 kts 275°
2026-04-25 14:59 22.90660 45.21227 39910 ft 417 kts 275°
2026-04-25 14:59 22.91079 45.14957 39908 ft 417 kts 275°
2026-04-25 15:00 22.91497 45.08681 39915 ft 417 kts 275°
2026-04-25 15:00 22.91913 45.02449 39912 ft 417 kts 275°
2026-04-25 15:01 22.92322 44.96175 39909 ft 418 kts 274°
2026-04-25 15:01 22.92730 44.89881 39909 ft 418 kts 274°
2026-04-25 15:02 22.93137 44.83581 39903 ft 418 kts 274°
2026-04-25 15:02 22.93543 44.77286 39904 ft 418 kts 274°
2026-04-25 15:03 22.93944 44.71030 39917 ft 418 kts 274°
2026-04-25 15:03 22.94953 44.64827 39914 ft 418 kts 285°
2026-04-25 15:04 22.96711 44.58796 39901 ft 419 kts 287°
2026-04-25 15:04 22.98577 44.52799 39904 ft 419 kts 287°
2026-04-25 15:05 23.00448 44.46806 39902 ft 419 kts 287°
2026-04-25 15:06 23.03228 44.37803 39906 ft 418 kts 287°
2026-04-25 15:06 23.05056 44.31850 39907 ft 418 kts 287°
2026-04-25 15:07 23.06893 44.25859 39904 ft 418 kts 287°
2026-04-25 15:07 23.08726 44.19874 39902 ft 417 kts 287°
2026-04-25 15:08 23.10553 44.13897 39904 ft 417 kts 287°
2026-04-25 15:08 23.12379 44.07917 39905 ft 417 kts 287°
2026-04-25 15:09 23.14202 44.01936 39908 ft 417 kts 286°
2026-04-25 15:09 23.16938 43.92948 39907 ft 417 kts 286°
2026-04-25 15:10 23.18754 43.86969 39912 ft 416 kts 286°
2026-04-25 15:11 23.21462 43.78036 39920 ft 416 kts 286°
2026-04-25 15:11 23.23272 43.72053 39923 ft 417 kts 286°
2026-04-25 15:12 23.25680 43.64081 39928 ft 417 kts 286°
2026-04-25 15:12 23.27192 43.59069 39937 ft 416 kts 286°
2026-04-25 15:13 23.30189 43.49126 39941 ft 416 kts 286°
2026-04-25 15:14 23.31980 43.43154 39944 ft 416 kts 286°
2026-04-25 15:14 23.33773 43.37172 39947 ft 415 kts 286°
2026-04-25 15:15 23.35559 43.31207 39955 ft 415 kts 286°
2026-04-25 15:15 23.37345 43.25236 39957 ft 414 kts 286°
2026-04-25 15:16 23.39128 43.19269 39957 ft 414 kts 286°
2026-04-25 15:16 23.41796 43.10314 39965 ft 415 kts 286°
2026-04-25 15:17 23.44451 43.01356 39967 ft 415 kts 286°
2026-04-25 15:18 23.46221 42.95374 39963 ft 415 kts 286°
2026-04-25 15:18 23.48860 42.86440 39966 ft 415 kts 286°
2026-04-25 15:19 23.50327 42.81467 39969 ft 415 kts 286°
2026-04-25 15:19 23.52389 42.74465 39969 ft 415 kts 286°
2026-04-25 15:20 23.54153 42.68480 39968 ft 415 kts 286°
2026-04-25 15:20 23.55916 42.62489 39969 ft 415 kts 286°
2026-04-25 15:21 23.57677 42.56496 39974 ft 416 kts 286°
2026-04-25 15:21 23.59428 42.50526 39981 ft 416 kts 286°
2026-04-25 15:22 23.61191 42.44507 39984 ft 416 kts 285°
2026-04-25 15:22 23.62951 42.38488 39984 ft 416 kts 285°
2026-04-25 15:23 23.64712 42.32452 39991 ft 417 kts 285°
2026-04-25 15:23 23.66474 42.26418 39993 ft 418 kts 285°
2026-04-25 15:24 23.68227 42.20379 39993 ft 418 kts 285°
2026-04-25 15:24 23.69680 42.15350 39996 ft 418 kts 285°
2026-04-25 15:25 23.71725 42.08268 39996 ft 419 kts 285°
2026-04-25 15:25 23.73475 42.02205 39993 ft 419 kts 285°
2026-04-25 15:26 23.75226 41.96145 39995 ft 418 kts 285°
2026-04-25 15:26 23.76965 41.90132 39994 ft 418 kts 285°
2026-04-25 15:27 23.78712 41.84074 39992 ft 418 kts 285°
2026-04-25 15:28 23.81334 41.74975 39992 ft 419 kts 285°
2026-04-25 15:28 23.83078 41.68905 39985 ft 419 kts 285°
2026-04-25 15:29 23.84817 41.62827 39986 ft 419 kts 285°
2026-04-25 15:29 23.86554 41.56750 39986 ft 419 kts 285°
2026-04-25 15:30 23.88298 41.50665 39982 ft 420 kts 285°
2026-04-25 15:30 23.90023 41.44567 39983 ft 420 kts 285°
2026-04-25 15:31 23.91739 41.38495 39976 ft 420 kts 285°
2026-04-25 15:31 23.93484 41.32345 39972 ft 421 kts 285°
2026-04-25 15:32 23.95210 41.26260 39970 ft 421 kts 285°
2026-04-25 15:32 23.96944 41.20123 39969 ft 421 kts 285°
2026-04-25 15:33 23.99537 41.10939 39964 ft 421 kts 284°
2026-04-25 15:33 24.01262 41.04818 39960 ft 421 kts 284°
2026-04-25 15:34 24.02978 40.98721 39950 ft 421 kts 284°
2026-04-25 15:34 24.04423 40.93586 39954 ft 421 kts 284°
2026-04-25 15:35 24.07284 40.83383 39945 ft 422 kts 284°
2026-04-25 15:36 24.09860 40.74162 39945 ft 422 kts 284°
2026-04-25 15:36 24.11575 40.68016 39940 ft 422 kts 284°
2026-04-25 15:37 24.13290 40.61864 39934 ft 422 kts 284°
2026-04-25 15:37 24.14999 40.55718 39923 ft 422 kts 284°
2026-04-25 15:38 24.17095 40.49693 39929 ft 426 kts 292°
2026-04-25 15:38 24.19765 40.43934 39916 ft 428 kts 294°
2026-04-25 15:39 24.22550 40.38146 39915 ft 430 kts 294°
2026-04-25 15:39 24.25347 40.32350 39913 ft 430 kts 294°
2026-04-25 15:40 24.27212 40.28466 39911 ft 430 kts 294°
2026-04-25 15:40 24.30914 40.20725 39919 ft 429 kts 294°
2026-04-25 15:41 24.33679 40.14930 39917 ft 429 kts 294°
2026-04-25 15:41 24.36442 40.09131 39921 ft 429 kts 294°
2026-04-25 15:42 24.39188 40.03364 39915 ft 429 kts 294°
2026-04-25 15:42 24.41960 39.97535 39908 ft 428 kts 293°
2026-04-25 15:43 24.44707 39.91749 39915 ft 427 kts 293°
2026-04-25 15:43 24.47435 39.85997 39913 ft 427 kts 293°
2026-04-25 15:44 24.50164 39.80237 39929 ft 427 kts 293°
2026-04-25 15:44 24.52946 39.74485 39909 ft 427 kts 296°
2026-04-25 15:45 24.56649 39.69327 39911 ft 438 kts 310°
2026-04-25 15:45 24.59818 39.66443 39908 ft 443 kts 315°
2026-04-25 15:46 24.66477 39.61099 39913 ft 446 kts 317°
2026-04-25 15:46 24.71531 39.57121 39922 ft 446 kts 316°
2026-04-25 15:47 24.76517 39.53161 39911 ft 444 kts 316°
2026-04-25 15:47 24.81511 39.49165 39912 ft 444 kts 316°
2026-04-25 15:48 24.86504 39.45161 39915 ft 444 kts 316°
2026-04-25 15:48 24.91483 39.41165 39905 ft 442 kts 316°
2026-04-25 15:49 24.96452 39.37173 39900 ft 442 kts 316°
2026-04-25 15:49 25.01422 39.33178 39904 ft 442 kts 316°
2026-04-25 15:50 25.06386 39.29185 39896 ft 441 kts 316°
2026-04-25 15:50 25.11342 39.25192 39897 ft 441 kts 316°
2026-04-25 15:51 25.14624 39.22546 39895 ft 441 kts 316°
2026-04-25 15:51 25.21090 39.17023 39891 ft 432 kts 308°
2026-04-25 15:52 25.24799 39.12008 39893 ft 421 kts 298°
2026-04-25 15:52 25.28027 39.06622 39882 ft 419 kts 297°
2026-04-25 15:53 25.31170 39.01191 39875 ft 419 kts 296°
2026-04-25 15:53 25.34317 38.95762 39874 ft 419 kts 297°
2026-04-25 15:54 25.37472 38.90350 39868 ft 419 kts 297°
2026-04-25 15:54 25.40616 38.84961 39871 ft 418 kts 297°
2026-04-25 15:55 25.43767 38.79553 39855 ft 418 kts 297°
2026-04-25 15:55 25.46921 38.74132 39852 ft 419 kts 297°
2026-04-25 15:56 25.50005 38.68678 39851 ft 418 kts 296°
2026-04-25 15:56 25.53044 38.63180 39857 ft 418 kts 295°
2026-04-25 15:57 25.56072 38.57709 39851 ft 416 kts 295°
2026-04-25 15:57 25.59108 38.52242 39851 ft 416 kts 295°
2026-04-25 15:58 25.62129 38.46808 39848 ft 416 kts 295°
2026-04-25 15:58 25.65159 38.41351 39848 ft 416 kts 295°
2026-04-25 15:59 25.68189 38.35886 39848 ft 416 kts 295°
2026-04-25 15:59 25.71218 38.30420 39860 ft 415 kts 295°
2026-04-25 16:00 25.73236 38.26774 39862 ft 414 kts 295°
2026-04-25 16:00 25.76756 38.20404 39837 ft 414 kts 295°
2026-04-25 16:01 25.79751 38.14957 39856 ft 413 kts 295°
2026-04-25 16:01 25.82753 38.09523 39858 ft 412 kts 295°
2026-04-25 16:02 25.85727 38.04131 39861 ft 412 kts 295°
2026-04-25 16:02 25.88741 37.98653 39873 ft 412 kts 295°
2026-04-25 16:03 25.91725 37.93216 39887 ft 412 kts 295°
2026-04-25 16:03 25.94700 37.87790 39889 ft 410 kts 295°
2026-04-25 16:04 25.97654 37.82408 39889 ft 410 kts 295°
2026-04-25 16:04 26.00617 37.76999 39903 ft 410 kts 295°
2026-04-25 16:05 26.03578 37.71583 39905 ft 409 kts 295°
2026-04-25 16:06 26.08006 37.63475 39911 ft 408 kts 295°
2026-04-25 16:06 26.10951 37.58076 39911 ft 409 kts 294°
2026-04-25 16:07 26.13897 37.52660 39914 ft 409 kts 294°
2026-04-25 16:07 26.16839 37.47248 39920 ft 408 kts 294°
2026-04-25 16:08 26.19783 37.41828 39914 ft 409 kts 294°
2026-04-25 16:08 26.22732 37.36400 39916 ft 409 kts 294°
2026-04-25 16:09 26.25670 37.30977 39915 ft 408 kts 294°
2026-04-25 16:09 26.28601 37.25571 39919 ft 407 kts 294°
2026-04-25 16:10 26.31517 37.20176 39892 ft 406 kts 294°
2026-04-25 16:10 26.34436 37.14777 39901 ft 407 kts 294°
2026-04-25 16:11 26.37348 37.09380 39925 ft 407 kts 294°
2026-04-25 16:11 26.40258 37.03965 39918 ft 408 kts 294°
2026-04-25 16:12 26.43177 36.98536 39905 ft 407 kts 294°
2026-04-25 16:12 26.46082 36.93133 39888 ft 404 kts 294°
2026-04-25 16:13 26.48970 36.87754 39888 ft 404 kts 294°
2026-04-25 16:13 26.51857 36.82365 39884 ft 404 kts 294°
2026-04-25 16:14 26.54743 36.76975 39881 ft 404 kts 294°
2026-04-25 16:14 26.57626 36.71584 39891 ft 404 kts 293°
2026-04-25 16:15 26.60503 36.66203 39883 ft 403 kts 293°
2026-04-25 16:15 26.63370 36.60829 39877 ft 403 kts 293°
2026-04-25 16:16 26.66236 36.55447 39878 ft 402 kts 293°
2026-04-25 16:16 26.69084 36.50096 39891 ft 403 kts 293°
2026-04-25 16:17 26.71940 36.44724 39875 ft 402 kts 293°
2026-04-25 16:17 26.74796 36.39346 39876 ft 402 kts 293°
2026-04-25 16:18 26.77651 36.33961 39876 ft 402 kts 293°
2026-04-25 16:18 26.80504 36.28576 39885 ft 401 kts 293°
2026-04-25 16:19 26.83347 36.23205 39891 ft 399 kts 293°
2026-04-25 16:19 26.86173 36.17857 39881 ft 399 kts 292°
2026-04-25 16:20 26.90402 36.09837 39876 ft 398 kts 292°
2026-04-25 16:21 26.94627 36.01813 39858 ft 399 kts 292°
2026-04-25 16:21 26.97441 35.96461 39875 ft 399 kts 292°
2026-04-25 16:22 27.00255 35.91104 39873 ft 399 kts 292°
2026-04-25 16:22 27.03047 35.85781 39878 ft 399 kts 292°
2026-04-25 16:23 27.05876 35.80382 39878 ft 399 kts 292°
2026-04-25 16:23 27.08666 35.75050 39891 ft 399 kts 292°
2026-04-25 16:24 27.11471 35.69683 39875 ft 399 kts 292°
2026-04-25 16:24 27.14278 35.64306 39873 ft 399 kts 292°
2026-04-25 16:25 27.17078 35.58935 39872 ft 399 kts 292°
2026-04-25 16:25 27.19879 35.53557 39869 ft 398 kts 292°
2026-04-25 16:26 27.22675 35.48179 39879 ft 398 kts 292°
2026-04-25 16:26 27.25466 35.42807 39870 ft 398 kts 292°
2026-04-25 16:27 27.28255 35.37431 39873 ft 398 kts 292°
2026-04-25 16:27 27.31030 35.32075 39873 ft 398 kts 292°
2026-04-25 16:28 27.33832 35.26660 39873 ft 398 kts 292°
2026-04-25 16:28 27.36615 35.21275 39874 ft 398 kts 292°
2026-04-25 16:29 27.39399 35.15883 39866 ft 398 kts 292°
2026-04-25 16:29 27.42158 35.10530 39861 ft 398 kts 292°
2026-04-25 16:30 27.44937 35.05134 39864 ft 398 kts 292°
2026-04-25 16:30 27.47729 34.99706 39861 ft 398 kts 292°
2026-04-25 16:31 27.50605 34.94348 39861 ft 404 kts 297°
2026-04-25 16:31 27.54364 34.89501 39862 ft 415 kts 305°
2026-04-25 16:32 27.58541 34.85012 39862 ft 419 kts 307°
2026-04-25 16:32 27.62826 34.80564 39859 ft 419 kts 307°
2026-04-25 16:33 27.67101 34.76091 39858 ft 419 kts 306°
2026-04-25 16:33 27.71354 34.71598 39860 ft 418 kts 306°
2026-04-25 16:34 27.75592 34.67100 39857 ft 418 kts 306°
2026-04-25 16:34 27.79835 34.62591 39860 ft 419 kts 306°
2026-04-25 16:35 27.84085 34.58072 39857 ft 420 kts 306°
2026-04-25 16:35 27.88345 34.53539 39857 ft 420 kts 306°
2026-04-25 16:36 27.92600 34.49007 39855 ft 420 kts 306°
2026-04-25 16:36 27.96849 34.44482 39857 ft 420 kts 306°
2026-04-25 16:37 28.00888 34.39780 39857 ft 412 kts 301°
2026-04-25 16:37 28.04557 34.34814 39858 ft 411 kts 300°
2026-04-25 16:38 28.08179 34.29793 39860 ft 411 kts 300°
2026-04-25 16:38 28.11780 34.24786 39868 ft 412 kts 300°
2026-04-25 16:39 28.15407 34.19749 39919 ft 413 kts 300°
2026-04-25 16:39 28.19030 34.14711 39907 ft 413 kts 300°
2026-04-25 16:40 28.22052 34.10518 39929 ft 412 kts 300°
2026-04-25 16:40 28.26270 34.04663 39900 ft 411 kts 300°
2026-04-25 16:41 28.29223 34.00549 39907 ft 408 kts 300°
2026-04-25 16:41 28.34499 33.93164 39960 ft 410 kts 300°
2026-04-25 16:42 28.38106 33.88130 39913 ft 411 kts 300°
2026-04-25 16:42 28.41699 33.83119 39910 ft 411 kts 300°
2026-04-25 16:43 28.45311 33.78080 39912 ft 411 kts 300°
2026-04-25 16:43 28.48906 33.73037 39875 ft 408 kts 300°
2026-04-25 16:44 28.52488 33.68017 39895 ft 410 kts 300°
2026-04-25 16:44 28.56099 33.62942 39917 ft 415 kts 300°
2026-04-25 16:45 28.59748 33.57811 39919 ft 417 kts 299°
2026-04-25 16:45 28.63398 33.52676 39913 ft 417 kts 300°
2026-04-25 16:46 28.67049 33.47543 39903 ft 416 kts 299°
2026-04-25 16:46 28.70071 33.43275 39910 ft 416 kts 299°
2026-04-25 16:47 28.74318 33.37270 39909 ft 416 kts 299°
2026-04-25 16:47 28.77930 33.32157 39901 ft 416 kts 299°
2026-04-25 16:48 28.81559 33.27018 39898 ft 416 kts 299°
2026-04-25 16:48 28.85185 33.21876 39890 ft 416 kts 299°
2026-04-25 16:49 28.88807 33.16732 39897 ft 416 kts 299°
2026-04-25 16:49 28.92439 33.11565 39896 ft 417 kts 299°
2026-04-25 16:50 28.96071 33.06394 39895 ft 418 kts 299°
2026-04-25 16:50 28.99708 33.01212 39884 ft 418 kts 299°
2026-04-25 16:51 29.03317 32.96061 39888 ft 418 kts 299°
2026-04-25 16:51 29.06339 32.91744 39885 ft 418 kts 299°
2026-04-25 16:52 29.10579 32.85678 39882 ft 418 kts 299°
2026-04-25 16:52 29.14210 32.80475 39891 ft 418 kts 299°
2026-04-25 16:53 29.19661 32.72655 39889 ft 419 kts 299°
2026-04-25 16:54 29.23287 32.67445 39887 ft 419 kts 299°
2026-04-25 16:54 29.26912 32.62229 39887 ft 419 kts 299°
2026-04-25 16:55 29.30519 32.57031 39902 ft 419 kts 299°
2026-04-25 16:55 29.34121 32.51782 39921 ft 419 kts 299°
2026-04-25 16:56 29.37720 32.46518 39907 ft 420 kts 299°
2026-04-25 16:56 29.41331 32.41243 39905 ft 420 kts 299°
2026-04-25 16:57 29.44940 32.35969 39913 ft 420 kts 299°
2026-04-25 16:57 29.48548 32.30693 39914 ft 420 kts 299°
2026-04-25 16:58 29.52152 32.25412 39919 ft 420 kts 298°
2026-04-25 16:58 29.55752 32.20127 39927 ft 421 kts 299°
2026-04-25 16:59 29.59356 32.14833 39924 ft 420 kts 299°
2026-04-25 16:59 29.62963 32.09532 39924 ft 420 kts 299°
2026-04-25 17:00 29.66558 32.04239 39926 ft 420 kts 298°
2026-04-25 17:00 29.70132 31.98968 39922 ft 420 kts 299°
2026-04-25 17:01 29.73753 31.93622 39918 ft 420 kts 299°
2026-04-25 17:01 29.77328 31.88337 39911 ft 422 kts 299°
2026-04-25 17:02 29.80902 31.82976 39896 ft 422 kts 298°
2026-04-25 17:02 29.84370 31.77532 39898 ft 421 kts 297°
2026-04-25 17:03 29.87824 31.72082 39885 ft 422 kts 297°
2026-04-25 17:03 29.91302 31.66627 39888 ft 422 kts 298°
2026-04-25 17:04 29.94806 31.61193 39879 ft 422 kts 298°
2026-04-25 17:04 29.98323 31.55765 39845 ft 422 kts 298°
2026-04-25 17:05 30.01843 31.50321 39847 ft 423 kts 298°
2026-04-25 17:05 30.07122 31.42132 39829 ft 424 kts 298°
2026-04-25 17:06 30.11062 31.36947 39830 ft 435 kts 306°
2026-04-25 17:06 30.15429 31.32149 39859 ft 437 kts 307°
2026-04-25 17:07 30.19908 31.27360 39832 ft 439 kts 308°
2026-04-25 17:07 30.24399 31.22559 39841 ft 439 kts 307°
2026-04-25 17:08 30.28873 31.17754 39843 ft 439 kts 307°
2026-04-25 17:08 30.33333 31.12947 39843 ft 439 kts 307°
2026-04-25 17:09 30.37801 31.08123 39843 ft 439 kts 307°
2026-04-25 17:09 30.42254 31.03309 39845 ft 439 kts 307°
2026-04-25 17:10 30.46720 30.98475 39848 ft 439 kts 307°
2026-04-25 17:10 30.51179 30.93641 39868 ft 440 kts 308°
2026-04-25 17:11 30.55660 30.88775 39853 ft 442 kts 308°
2026-04-25 17:11 30.60148 30.83901 39856 ft 442 kts 308°
2026-04-25 17:12 30.64521 30.79145 39854 ft 442 kts 308°
2026-04-25 17:12 30.69010 30.74254 39853 ft 442 kts 308°
2026-04-25 17:13 30.71987 30.71008 39856 ft 442 kts 308°
2026-04-25 17:13 30.77956 30.64489 39856 ft 442 kts 308°
2026-04-25 17:14 30.82435 30.59590 39856 ft 442 kts 308°
2026-04-25 17:14 30.86917 30.54679 39857 ft 443 kts 308°
2026-04-25 17:15 30.91401 30.49761 39862 ft 443 kts 308°
2026-04-25 17:15 30.95895 30.44826 39862 ft 443 kts 308°
2026-04-25 17:16 31.00380 30.39895 39862 ft 443 kts 308°
2026-04-25 17:16 31.04861 30.34955 39864 ft 443 kts 308°
2026-04-25 17:17 31.08689 30.29497 39865 ft 427 kts 294°
2026-04-25 17:17 31.11102 30.23279 39861 ft 418 kts 284°
2026-04-25 17:18 31.12913 30.16851 39857 ft 417 kts 282°
2026-04-25 17:18 31.14633 30.10390 39890 ft 417 kts 282°
2026-04-25 17:19 31.16367 30.03907 39862 ft 419 kts 282°
2026-04-25 17:19 31.18205 29.97440 39857 ft 422 kts 287°
2026-04-25 17:20 31.21073 29.91410 39857 ft 432 kts 297°
2026-04-25 17:20 31.24564 29.85673 39857 ft 434 kts 299°
2026-04-25 17:21 31.28157 29.79979 39869 ft 435 kts 299°
2026-04-25 17:21 31.31754 29.74257 39865 ft 439 kts 299°
2026-04-25 17:22 31.34170 29.70387 39881 ft 440 kts 299°
2026-04-25 17:22 31.38961 29.62683 39884 ft 440 kts 299°
2026-04-25 17:23 31.41951 29.57863 39888 ft 440 kts 299°
2026-04-25 17:23 31.45547 29.52058 39903 ft 440 kts 299°
2026-04-25 17:24 31.49143 29.46243 39897 ft 441 kts 299°
2026-04-25 17:24 31.52737 29.40427 39900 ft 441 kts 299°
2026-04-25 17:25 31.56328 29.34606 39903 ft 441 kts 299°
2026-04-25 17:25 31.59890 29.28823 39903 ft 441 kts 299°
2026-04-25 17:26 31.63481 29.22968 39923 ft 441 kts 299°
2026-04-25 17:26 31.67060 29.17115 39916 ft 442 kts 299°
2026-04-25 17:27 31.70653 29.11235 39920 ft 444 kts 299°
2026-04-25 17:27 31.73657 29.06315 39920 ft 446 kts 300°
2026-04-25 17:28 31.77884 28.99393 39927 ft 446 kts 299°
2026-04-25 17:28 31.81474 28.93494 39932 ft 446 kts 299°
2026-04-25 17:29 31.85082 28.87556 39931 ft 447 kts 299°
2026-04-25 17:29 31.88695 28.81604 39929 ft 447 kts 299°
2026-04-25 17:30 31.92301 28.75655 39932 ft 447 kts 299°
2026-04-25 17:30 31.95908 28.69694 39933 ft 447 kts 299°
2026-04-25 17:31 31.99512 28.63729 39946 ft 447 kts 299°
2026-04-25 17:31 32.03122 28.57742 39936 ft 449 kts 299°
2026-04-25 17:32 32.06740 28.51737 39934 ft 449 kts 299°
2026-04-25 17:32 32.10357 28.45723 39936 ft 450 kts 299°
2026-04-25 17:33 32.13975 28.39695 39936 ft 451 kts 299°
2026-04-25 17:33 32.17586 28.33671 39939 ft 452 kts 299°
2026-04-25 17:34 32.21219 28.27601 39933 ft 453 kts 299°
2026-04-25 17:34 32.24850 28.21526 39933 ft 453 kts 299°
2026-04-25 17:35 32.28486 28.15431 39933 ft 453 kts 299°
2026-04-25 17:35 32.32113 28.09343 39933 ft 453 kts 299°
2026-04-25 17:36 32.35739 28.03244 39935 ft 454 kts 299°
2026-04-25 17:36 32.39346 27.97168 39933 ft 455 kts 299°
2026-04-25 17:37 32.42983 27.91033 39930 ft 455 kts 299°
2026-04-25 17:37 32.46613 27.84901 39930 ft 455 kts 299°
2026-04-25 17:38 32.49653 27.79756 39945 ft 455 kts 300°
2026-04-25 17:38 32.53877 27.72593 39930 ft 457 kts 300°
2026-04-25 17:39 32.57521 27.66406 39925 ft 458 kts 299°
2026-04-25 17:39 32.61168 27.60205 39924 ft 458 kts 299°
2026-04-25 17:40 32.64805 27.54009 39922 ft 457 kts 299°
2026-04-25 17:40 32.68442 27.47804 39915 ft 457 kts 299°
2026-04-25 17:41 32.72058 27.41625 39921 ft 459 kts 300°
2026-04-25 17:41 32.75693 27.35392 39914 ft 459 kts 299°
2026-04-25 17:42 32.79317 27.29153 39918 ft 459 kts 299°
2026-04-25 17:42 32.82944 27.22901 39910 ft 459 kts 299°
2026-04-25 17:43 32.86565 27.16654 39923 ft 459 kts 299°
2026-04-25 17:43 32.90187 27.10394 39904 ft 460 kts 299°
2026-04-25 17:44 32.93816 27.04113 39903 ft 460 kts 299°
2026-04-25 17:44 32.97438 26.97834 39898 ft 460 kts 299°
2026-04-25 17:45 32.99839 26.93676 39908 ft 460 kts 299°
2026-04-25 17:45 33.04646 26.85290 39905 ft 460 kts 299°
2026-04-25 17:46 33.08244 26.78999 39903 ft 459 kts 299°
2026-04-25 17:46 33.11843 26.72700 39900 ft 459 kts 299°
2026-04-25 17:47 33.15439 26.66398 39901 ft 459 kts 299°
2026-04-25 17:47 33.19036 26.60085 39895 ft 459 kts 299°
2026-04-25 17:48 33.24418 26.50618 39895 ft 460 kts 300°
2026-04-25 17:49 33.28010 26.44286 39890 ft 460 kts 299°
2026-04-25 17:49 33.31601 26.37945 39886 ft 461 kts 300°
2026-04-25 17:50 33.35195 26.31587 39883 ft 462 kts 300°
2026-04-25 17:50 33.38788 26.25221 39892 ft 462 kts 300°
2026-04-25 17:51 33.42383 26.18838 39881 ft 463 kts 300°
2026-04-25 17:51 33.45978 26.12446 39870 ft 463 kts 300°
2026-04-25 17:52 33.49575 26.06041 39870 ft 463 kts 300°
2026-04-25 17:52 33.53167 25.99632 39867 ft 463 kts 300°
2026-04-25 17:53 33.56753 25.93221 39869 ft 463 kts 300°
2026-04-25 17:53 33.60354 25.86773 39870 ft 466 kts 300°
2026-04-25 17:54 33.63932 25.80354 39862 ft 466 kts 300°
2026-04-25 17:54 33.67548 25.73858 39862 ft 466 kts 300°
2026-04-25 17:55 33.71150 25.67374 39869 ft 467 kts 300°
2026-04-25 17:55 33.74763 25.60856 39866 ft 469 kts 300°
2026-04-25 17:56 33.78380 25.54322 39864 ft 469 kts 300°
2026-04-25 17:56 33.81994 25.47784 39864 ft 469 kts 300°
2026-04-25 17:57 33.85602 25.41242 39865 ft 469 kts 300°
2026-04-25 17:57 33.89212 25.34686 39868 ft 469 kts 300°
2026-04-25 17:58 33.92816 25.28128 39871 ft 469 kts 301°
2026-04-25 17:58 33.96415 25.21566 39869 ft 470 kts 301°
2026-04-25 17:59 33.99806 25.14904 39871 ft 467 kts 293°
2026-04-25 17:59 34.02243 25.07678 39874 ft 465 kts 288°
2026-04-25 18:00 34.04458 25.00354 39876 ft 465 kts 288°
2026-04-25 18:00 34.06636 24.93000 39890 ft 466 kts 288°
2026-04-25 18:01 34.08825 24.85635 39880 ft 466 kts 288°
2026-04-25 18:01 34.11017 24.78282 39878 ft 467 kts 288°
2026-04-25 18:02 34.13214 24.70903 39882 ft 467 kts 288°
2026-04-25 18:02 34.15406 24.63525 39885 ft 466 kts 288°
2026-04-25 18:03 34.17590 24.56149 39895 ft 466 kts 288°
2026-04-25 18:03 34.19772 24.48761 39894 ft 467 kts 288°
2026-04-25 18:04 34.21940 24.41401 39890 ft 469 kts 288°
2026-04-25 18:04 34.24125 24.33965 39895 ft 470 kts 288°
2026-04-25 18:05 34.26309 24.26515 39893 ft 470 kts 288°
2026-04-25 18:05 34.28495 24.19056 39895 ft 470 kts 288°
2026-04-25 18:06 34.30669 24.11597 39898 ft 470 kts 288°
2026-04-25 18:06 34.32839 24.04127 39898 ft 471 kts 288°
2026-04-25 18:07 34.35006 23.96654 39902 ft 471 kts 288°
2026-04-25 18:07 34.36808 23.90426 39903 ft 471 kts 288°
2026-04-25 18:08 34.39335 23.81673 39912 ft 471 kts 288°
2026-04-25 18:08 34.41130 23.75438 39909 ft 471 kts 288°
2026-04-25 18:09 34.43279 23.67952 39914 ft 469 kts 289°
2026-04-25 18:09 34.45420 23.60477 39928 ft 469 kts 289°
2026-04-25 18:10 34.47557 23.52999 39928 ft 469 kts 288°
2026-04-25 18:10 34.49688 23.45536 39934 ft 468 kts 289°
2026-04-25 18:11 34.51814 23.38065 39932 ft 470 kts 289°
2026-04-25 18:11 34.53922 23.30614 39941 ft 465 kts 289°
2026-04-25 18:12 34.56008 23.23220 39952 ft 462 kts 289°
2026-04-25 18:12 34.58110 23.15823 39953 ft 464 kts 289°
2026-04-25 18:13 34.60211 23.08389 39961 ft 466 kts 289°
2026-04-25 18:13 34.62289 23.00950 39964 ft 464 kts 289°
2026-04-25 18:14 34.65232 22.89757 39969 ft 465 kts 287°
2026-04-25 18:14 34.67114 22.82223 39981 ft 466 kts 287°
2026-04-25 18:15 34.69012 22.74694 39979 ft 465 kts 287°
2026-04-25 18:15 34.70924 22.67163 39990 ft 467 kts 287°
2026-04-25 18:16 34.72844 22.59599 39994 ft 468 kts 287°
2026-04-25 18:17 34.75704 22.48288 40004 ft 467 kts 287°
2026-04-25 18:17 34.77583 22.40825 40004 ft 469 kts 287°
2026-04-25 18:18 34.79493 22.33217 40004 ft 470 kts 287°
2026-04-25 18:18 34.81358 22.25765 40011 ft 470 kts 287°
2026-04-25 18:19 34.83259 22.18150 40014 ft 470 kts 287°
2026-04-25 18:19 34.85155 22.10528 40012 ft 470 kts 287°
2026-04-25 18:20 34.87032 22.02963 40021 ft 469 kts 287°
2026-04-25 18:20 34.88913 21.95363 40019 ft 469 kts 287°
2026-04-25 18:21 34.90797 21.87729 40023 ft 469 kts 287°
2026-04-25 18:21 34.92671 21.80104 40024 ft 469 kts 287°
2026-04-25 18:22 34.94539 21.72485 40022 ft 468 kts 287°
2026-04-25 18:22 34.96398 21.64878 40020 ft 468 kts 287°
2026-04-25 18:23 34.98253 21.57265 40022 ft 468 kts 287°
2026-04-25 18:23 35.00105 21.49643 40033 ft 468 kts 287°
2026-04-25 18:24 35.01950 21.42025 40025 ft 468 kts 287°
2026-04-25 18:24 35.03777 21.34462 40033 ft 468 kts 287°
2026-04-25 18:25 35.05614 21.26830 40034 ft 468 kts 287°
2026-04-25 18:25 35.07445 21.19203 40041 ft 468 kts 287°
2026-04-25 18:26 35.09272 21.11569 40036 ft 468 kts 287°
2026-04-25 18:26 35.11092 21.03937 40038 ft 468 kts 287°
2026-04-25 18:27 35.12909 20.96298 40038 ft 469 kts 287°
2026-04-25 18:27 35.14727 20.88630 40037 ft 470 kts 287°
2026-04-25 18:28 35.16539 20.80965 40041 ft 470 kts 287°
2026-04-25 18:28 35.18348 20.73287 40041 ft 470 kts 287°
2026-04-25 18:29 35.21054 20.61765 40045 ft 470 kts 287°
2026-04-25 18:30 35.24645 20.46374 40040 ft 470 kts 287°
2026-04-25 18:30 35.26421 20.38729 40054 ft 470 kts 287°
2026-04-25 18:31 35.28204 20.31039 40055 ft 470 kts 287°
2026-04-25 18:31 35.29980 20.23340 40052 ft 470 kts 287°
2026-04-25 18:32 35.31752 20.15638 40057 ft 470 kts 287°
2026-04-25 18:32 35.33520 20.07926 40054 ft 470 kts 287°
2026-04-25 18:33 35.35280 20.00227 40059 ft 470 kts 287°
2026-04-25 18:33 35.37035 19.92531 40059 ft 470 kts 287°
2026-04-25 18:34 35.38807 19.84728 40061 ft 470 kts 287°
2026-04-25 18:34 35.40553 19.77017 40061 ft 470 kts 287°
2026-04-25 18:35 35.42300 19.69278 40064 ft 471 kts 287°
2026-04-25 18:35 35.44041 19.61538 40068 ft 471 kts 287°
2026-04-25 18:36 35.45607 19.53738 40067 ft 471 kts 284°
2026-04-25 18:36 35.46972 19.45939 40058 ft 471 kts 283°
2026-04-25 18:37 35.48311 19.38059 40070 ft 472 kts 283°
2026-04-25 18:37 35.49659 19.30156 40070 ft 472 kts 284°
2026-04-25 18:38 35.51010 19.22266 40070 ft 473 kts 284°
2026-04-25 18:38 35.52363 19.14352 40070 ft 473 kts 283°
2026-04-25 18:39 35.53708 19.06446 40071 ft 473 kts 284°
2026-04-25 18:39 35.55046 18.98546 40072 ft 473 kts 284°
2026-04-25 18:40 35.56380 18.90632 40077 ft 473 kts 283°
2026-04-25 18:40 35.57700 18.82771 40080 ft 473 kts 283°
2026-04-25 18:41 35.59024 18.74853 40079 ft 473 kts 283°
2026-04-25 18:41 35.60342 18.66939 40084 ft 473 kts 283°
2026-04-25 18:42 35.61221 18.61639 40082 ft 473 kts 283°
2026-04-25 18:42 35.62963 18.51097 40083 ft 473 kts 283°
2026-04-25 18:43 35.64266 18.43169 40087 ft 473 kts 283°
2026-04-25 18:43 35.65564 18.35242 40088 ft 472 kts 283°
2026-04-25 18:44 35.66855 18.27319 40089 ft 472 kts 283°
2026-04-25 18:44 35.68141 18.19397 40089 ft 472 kts 283°
2026-04-25 18:45 35.69421 18.11473 40091 ft 472 kts 283°
2026-04-25 18:45 35.70688 18.03598 40091 ft 472 kts 283°
2026-04-25 18:46 35.71966 17.95618 40094 ft 472 kts 283°
2026-04-25 18:46 35.73221 17.87743 40097 ft 472 kts 283°
2026-04-25 18:47 35.74465 17.79908 40099 ft 472 kts 283°
2026-04-25 18:47 35.75719 17.71971 40096 ft 472 kts 283°
2026-04-25 18:48 35.76970 17.64021 40097 ft 472 kts 283°
2026-04-25 18:48 35.78215 17.56074 40097 ft 472 kts 283°
2026-04-25 18:49 35.79247 17.49460 40099 ft 472 kts 283°
2026-04-25 18:49 35.80480 17.41519 40102 ft 472 kts 283°
2026-04-25 18:50 35.81711 17.33562 40104 ft 472 kts 283°
2026-04-25 18:50 35.82935 17.25612 40105 ft 472 kts 283°
2026-04-25 18:51 35.83946 17.19011 40105 ft 472 kts 282°
2026-04-25 18:51 35.85363 17.09722 40108 ft 472 kts 282°
2026-04-25 18:52 35.86571 17.01767 40110 ft 471 kts 282°
2026-04-25 18:52 35.87770 16.93834 40111 ft 470 kts 282°
2026-04-25 18:53 35.88955 16.85953 40114 ft 470 kts 282°
2026-04-25 18:53 35.90142 16.78025 40103 ft 470 kts 282°
2026-04-25 18:54 35.91913 16.66127 40110 ft 469 kts 282°
2026-04-25 18:55 35.93082 16.58224 40119 ft 468 kts 282°
2026-04-25 18:55 35.94245 16.50324 40116 ft 467 kts 282°
2026-04-25 18:56 35.95402 16.42429 40117 ft 467 kts 282°
2026-04-25 18:56 35.96554 16.34534 40097 ft 467 kts 282°
2026-04-25 18:57 35.97694 16.26670 40118 ft 464 kts 282°
2026-04-25 18:57 35.98821 16.18873 40116 ft 463 kts 282°
2026-04-25 18:58 35.99945 16.11053 40116 ft 463 kts 282°
2026-04-25 18:58 36.01623 15.99315 40111 ft 463 kts 282°
2026-04-25 18:59 36.03838 15.83681 40120 ft 462 kts 282°
2026-04-25 19:00 36.05485 15.71965 40124 ft 461 kts 281°
2026-04-25 19:01 36.07120 15.60243 40119 ft 461 kts 281°
2026-04-25 19:01 36.08204 15.52424 40121 ft 461 kts 281°
2026-04-25 19:02 36.09819 15.40694 40124 ft 461 kts 281°
2026-04-25 19:03 36.11244 15.30281 40129 ft 461 kts 281°
2026-04-25 19:03 36.12483 15.21159 40129 ft 459 kts 281°
2026-04-25 19:04 36.14051 15.09545 40127 ft 458 kts 281°
2026-04-25 19:05 36.16132 14.93995 40127 ft 458 kts 281°
2026-04-25 19:06 36.17164 14.86230 40131 ft 457 kts 281°
2026-04-25 19:06 36.18699 14.74596 40129 ft 456 kts 281°
2026-04-25 19:07 36.20221 14.62969 40129 ft 456 kts 281°
2026-04-25 19:08 36.21726 14.51386 40129 ft 456 kts 281°
2026-04-25 19:09 36.23552 14.37203 40127 ft 456 kts 281°
2026-04-25 19:10 36.25209 14.24222 40125 ft 456 kts 280°
2026-04-25 19:10 36.26190 14.16472 40131 ft 455 kts 280°
2026-04-25 19:11 36.27164 14.08745 40131 ft 453 kts 280°
2026-04-25 19:11 36.28133 14.01018 40137 ft 453 kts 280°
2026-04-25 19:12 36.29096 13.93296 40142 ft 453 kts 280°
2026-04-25 19:12 36.30055 13.85561 40129 ft 453 kts 280°
2026-04-25 19:13 36.31001 13.77882 40142 ft 453 kts 280°
2026-04-25 19:13 36.31948 13.70164 40141 ft 453 kts 280°
2026-04-25 19:14 36.32889 13.62452 40145 ft 453 kts 280°
2026-04-25 19:14 36.33826 13.54728 40145 ft 453 kts 280°
2026-04-25 19:15 36.34759 13.46991 40139 ft 453 kts 280°
2026-04-25 19:15 36.35688 13.39248 40146 ft 454 kts 280°
2026-04-25 19:16 36.36613 13.31498 40147 ft 454 kts 280°
2026-04-25 19:16 36.37462 13.24337 40146 ft 454 kts 280°
2026-04-25 19:17 36.38346 13.16574 40142 ft 455 kts 279°
2026-04-25 19:17 36.39055 13.08770 40143 ft 456 kts 278°
2026-04-25 19:18 36.39729 13.00982 40146 ft 456 kts 278°
2026-04-25 19:18 36.40428 12.93138 40146 ft 456 kts 278°
2026-04-25 19:19 36.41136 12.85306 40144 ft 456 kts 278°
2026-04-25 19:19 36.41843 12.77476 40144 ft 456 kts 278°
2026-04-25 19:20 36.42546 12.69635 40145 ft 457 kts 278°
2026-04-25 19:20 36.43243 12.61775 40141 ft 458 kts 278°
2026-04-25 19:21 36.43935 12.53912 40140 ft 458 kts 278°
2026-04-25 19:21 36.44965 12.42106 40143 ft 458 kts 278°
2026-04-25 19:22 36.45645 12.34239 40143 ft 459 kts 278°
2026-04-25 19:22 36.46308 12.26483 39597 ft 447 kts 278°
2026-04-25 19:23 36.46638 12.22594 38998 ft 447 kts 278°
2026-04-25 19:23 36.47287 12.14948 37566 ft 447 kts 278°
2026-04-25 19:23 36.47610 12.11117 36886 ft 446 kts 278°
2026-04-25 19:24 36.47932 12.07295 36206 ft 445 kts 277°
2026-04-25 19:24 36.48252 12.03467 35500 ft 445 kts 277°
2026-04-25 19:24 36.48891 11.95795 33871 ft 449 kts 277°
2026-04-25 19:25 36.49528 11.88051 32130 ft 451 kts 277°
2026-04-25 19:25 36.49947 11.84182 31281 ft 451 kts 282°
2026-04-25 19:25 36.50810 11.80432 30415 ft 451 kts 291°
2026-04-25 19:26 36.52001 11.76813 29387 ft 454 kts 294°
2026-04-25 19:26 36.53284 11.73244 28722 ft 450 kts 295°
2026-04-25 19:26 36.54595 11.69736 28077 ft 445 kts 295°
2026-04-25 19:26 36.55910 11.66267 27425 ft 441 kts 295°
2026-04-25 19:27 36.57212 11.62834 26772 ft 437 kts 295°
2026-04-25 19:27 36.57633 11.61720 26561 ft 436 kts 295°
2026-04-25 19:27 36.59772 11.56019 25481 ft 431 kts 295°
2026-04-25 19:27 36.61029 11.52644 24844 ft 428 kts 295°
2026-04-25 19:28 36.62262 11.49324 24209 ft 426 kts 295°
2026-04-25 19:28 36.63551 11.46013 23547 ft 424 kts 297°
2026-04-25 19:28 36.64864 11.42752 22854 ft 420 kts 297°
2026-04-25 19:28 36.66168 11.39509 22207 ft 416 kts 296°
2026-04-25 19:29 36.67449 11.36307 21569 ft 412 kts 296°
2026-04-25 19:29 36.68718 11.33123 20930 ft 408 kts 296°
2026-04-25 19:29 36.69976 11.29959 20301 ft 406 kts 296°
2026-04-25 19:29 36.71219 11.26825 19649 ft 403 kts 296°
2026-04-25 19:30 36.72461 11.23691 18994 ft 401 kts 296°
2026-04-25 19:30 36.73695 11.20571 18322 ft 400 kts 296°
2026-04-25 19:30 36.74921 11.17473 17599 ft 398 kts 296°
2026-04-25 19:30 36.76138 11.14389 16940 ft 394 kts 296°
2026-04-25 19:31 36.77343 11.11332 16277 ft 391 kts 296°
2026-04-25 19:31 36.78538 11.08299 15625 ft 388 kts 296°
2026-04-25 19:31 36.79724 11.05289 14957 ft 386 kts 296°
2026-04-25 19:31 36.80905 11.02285 14290 ft 384 kts 295°
2026-04-25 19:32 36.82077 10.99298 13511 ft 384 kts 296°
2026-04-25 19:32 36.83249 10.96309 12791 ft 381 kts 296°
2026-04-25 19:32 36.84392 10.93393 12139 ft 377 kts 296°
2026-04-25 19:32 36.84779 10.92405 11900 ft 376 kts 296°
2026-04-25 19:33 36.86662 10.87596 11185 ft 360 kts 296°
2026-04-25 19:33 36.87732 10.84859 11050 ft 342 kts 296°
2026-04-25 19:33 36.88748 10.82256 10920 ft 326 kts 296°
2026-04-25 19:33 36.89717 10.79774 10792 ft 311 kts 296°
2026-04-25 19:34 36.90348 10.78156 10710 ft 302 kts 296°
2026-04-25 19:34 36.91530 10.75124 10532 ft 285 kts 296°
2026-04-25 19:34 36.92108 10.73638 10449 ft 276 kts 296°
2026-04-25 19:34 36.92937 10.71511 10278 ft 271 kts 296°
2026-04-25 19:35 36.93758 10.69401 9991 ft 269 kts 296°
2026-04-25 19:35 36.94592 10.67256 9731 ft 281 kts 296°
2026-04-25 19:35 36.95457 10.65032 9605 ft 283 kts 296°
2026-04-25 19:35 36.96314 10.62825 9160 ft 282 kts 296°
2026-04-25 19:36 36.97171 10.60616 8681 ft 282 kts 296°
2026-04-25 19:36 36.98022 10.58422 8345 ft 276 kts 296°
2026-04-25 19:36 36.98837 10.56321 8111 ft 259 kts 296°
2026-04-25 19:36 36.99601 10.54345 7712 ft 247 kts 296°
2026-04-25 19:37 37.00325 10.52475 7373 ft 238 kts 296°
2026-04-25 19:37 37.01045 10.50614 7082 ft 237 kts 295°
2026-04-25 19:37 37.01758 10.48771 6788 ft 236 kts 295°
2026-04-25 19:37 37.02469 10.46930 6512 ft 234 kts 295°
2026-04-25 19:38 37.03175 10.45102 6226 ft 233 kts 295°
2026-04-25 19:38 37.03877 10.43282 5944 ft 231 kts 295°
2026-04-25 19:38 37.04575 10.41470 5669 ft 231 kts 295°
2026-04-25 19:38 37.05268 10.39673 5388 ft 228 kts 295°
2026-04-25 19:39 37.05954 10.37894 5123 ft 226 kts 294°
2026-04-25 19:39 37.06637 10.36120 4864 ft 225 kts 294°
2026-04-25 19:39 37.07311 10.34356 4614 ft 223 kts 294°
2026-04-25 19:39 37.07763 10.32510 4378 ft 220 kts 277°
2026-04-25 19:40 37.07598 10.30620 3726 ft 222 kts 250°
2026-04-25 19:40 37.06592 10.29134 3185 ft 228 kts 216°
2026-04-25 19:40 37.05191 10.28219 3053 ft 225 kts 200°
2026-04-25 19:40 37.03730 10.27775 2952 ft 213 kts 192°
2026-04-25 19:41 37.02301 10.27419 2886 ft 207 kts 193°
2026-04-25 19:41 37.00899 10.27037 2780 ft 206 kts 193°
2026-04-25 19:41 36.99520 10.26647 2604 ft 199 kts 193°
2026-04-25 19:41 36.98615 10.26390 2415 ft 195 kts 192°
2026-04-25 19:42 36.96886 10.25918 2060 ft 188 kts 191°
2026-04-25 19:42 36.95642 10.25579 1808 ft 177 kts 191°
2026-04-25 19:42 36.94489 10.25261 1571 ft 163 kts 190°
2026-04-25 19:42 36.93428 10.24972 1358 ft 151 kts 190°
2026-04-25 19:43 36.92430 10.24699 1167 ft 141 kts 191°
2026-04-25 19:43 36.91502 10.24445 989 ft 133 kts 190°
2026-04-25 19:43 36.90601 10.24199 816 ft 133 kts 188°
2026-04-25 19:43 36.89693 10.23952 671 ft 135 kts 189°
2026-04-25 19:44 36.88777 10.23695 469 ft 134 kts 189°
2026-04-25 19:44 36.87866 10.23449 304 ft 135 kts 187°
2026-04-25 19:44 36.86943 10.23199 122 ft 137 kts 188°
2026-04-25 19:44 36.86023 10.22945 37 ft 127 kts 188°
2026-04-25 19:45 36.85296 10.22750 40 ft 87 kts 192°
2026-04-25 19:45 36.84839 10.22628 39 ft 47 kts 192°
2026-04-25 19:45 36.84577 10.22524 34 ft 19 kts 217°
2026-04-25 19:45 36.84493 10.22395 36 ft 20 kts 248°
2026-04-25 19:46 36.84484 10.22326 36 ft 0 kts 268°
2026-04-25 19:46 36.84484 10.22322 36 ft 2 kts 268°
2026-04-25 19:46 36.84485 10.22274 36 ft 9 kts 274°
2026-04-25 19:46 36.84498 10.22173 37 ft 14 kts 279°
2026-04-25 19:47 36.84473 10.22051 37 ft 16 kts 234°
2026-04-25 19:47 36.84446 10.21996 37 ft 1 kts 244°
2026-04-25 19:47 36.84452 10.21972 37 ft 3 kts 308°
2026-04-25 19:47 36.84485 10.21959 37 ft 7 kts 349°
2026-04-25 19:48 36.84516 10.21954 37 ft 0 kts 354°
2026-04-25 19:48 36.84519 10.21954 37 ft 0 kts 354°
2026-04-25 19:48 36.84521 10.21954 37 ft 0 kts 354°